DAH320A DAAG-DAOO

Flight info

Callsign DAH320A
Flight time N/A
Altitude 30000
Route CHE1C DAHRA UA411 MOS
Aircraft A20N/M-SDE2E3FGHIRWXY/LB1

Departure

Time N/A
Airport Houari Boumediene Airport (DAAG)

Arrival

Time 2026-04-23 19:04
Airport Oran Es-Sénia (Ahmed Ben Bella) International Airport (DAOO)
Time Latitude Longitude Altitude Speed Heading
2026-04-23 18:43 36.18302 0.96010 29999 ft 453 kts 247°
2026-04-23 18:44 36.15849 0.88814 30000 ft 453 kts 247°
2026-04-23 18:44 36.13396 0.81637 30000 ft 453 kts 247°
2026-04-23 18:45 36.08189 0.66459 30000 ft 452 kts 247°
2026-04-23 18:46 36.05726 0.59307 30000 ft 453 kts 247°
2026-04-23 18:46 36.03254 0.52143 30000 ft 452 kts 247°
2026-04-23 18:47 36.00785 0.45006 29999 ft 451 kts 247°
2026-04-23 18:47 35.98322 0.37902 29861 ft 447 kts 247°
2026-04-23 18:47 35.97133 0.34479 29354 ft 446 kts 247°
2026-04-23 18:48 35.95914 0.30974 28800 ft 442 kts 247°
2026-04-23 18:48 35.94703 0.27496 28209 ft 439 kts 247°
2026-04-23 18:48 35.93502 0.24048 27626 ft 434 kts 247°
2026-04-23 18:48 35.92314 0.20644 27034 ft 430 kts 247°
2026-04-23 18:49 35.91134 0.17266 26442 ft 426 kts 247°
2026-04-23 18:49 35.89967 0.13925 25851 ft 423 kts 247°
2026-04-23 18:49 35.88799 0.10611 25268 ft 419 kts 246°
2026-04-23 18:49 35.87630 0.07344 24697 ft 415 kts 246°
2026-04-23 18:50 35.86858 0.05195 24296 ft 412 kts 246°
2026-04-23 18:50 35.85311 0.00894 23568 ft 407 kts 246°
2026-04-23 18:50 35.84172 -0.02278 22989 ft 403 kts 246°
2026-04-23 18:50 35.83051 -0.05398 22416 ft 400 kts 246°
2026-04-23 18:51 35.81931 -0.08517 21843 ft 396 kts 246°
2026-04-23 18:51 35.80821 -0.11604 21277 ft 393 kts 246°
2026-04-23 18:51 35.79717 -0.14669 20710 ft 389 kts 246°
2026-04-23 18:51 35.78629 -0.17691 20148 ft 386 kts 246°
2026-04-23 18:52 35.77539 -0.20713 19567 ft 383 kts 246°
2026-04-23 18:52 35.76458 -0.23708 19010 ft 380 kts 246°
2026-04-23 18:52 35.75401 -0.26633 18476 ft 377 kts 246°
2026-04-23 18:52 35.74339 -0.29567 17901 ft 374 kts 246°
2026-04-23 18:53 35.73285 -0.32480 17352 ft 371 kts 246°
2026-04-23 18:53 35.72236 -0.35374 16811 ft 368 kts 246°
2026-04-23 18:53 35.71198 -0.38236 16276 ft 364 kts 246°
2026-04-23 18:53 35.70167 -0.41076 15765 ft 361 kts 246°
2026-04-23 18:54 35.69161 -0.43845 15599 ft 347 kts 246°
2026-04-23 18:54 35.68195 -0.46502 15468 ft 334 kts 246°
2026-04-23 18:54 35.67264 -0.49058 15350 ft 321 kts 246°
2026-04-23 18:54 35.66371 -0.51509 15234 ft 308 kts 246°
2026-04-23 18:55 35.65512 -0.53867 15119 ft 296 kts 246°
2026-04-23 18:55 35.64689 -0.56123 15023 ft 283 kts 246°
2026-04-23 18:55 35.63909 -0.58260 14925 ft 272 kts 246°
2026-04-23 18:55 35.63145 -0.60351 14729 ft 264 kts 246°
2026-04-23 18:56 35.62650 -0.61706 14501 ft 263 kts 246°
2026-04-23 18:56 35.61659 -0.64441 14021 ft 261 kts 250°
2026-04-23 18:56 35.61410 -0.66623 13630 ft 259 kts 278°
2026-04-23 18:56 35.62037 -0.68669 13238 ft 258 kts 307°
2026-04-23 18:57 35.62875 -0.69708 12963 ft 258 kts 326°
2026-04-23 18:57 35.64527 -0.70495 12562 ft 258 kts 355°
2026-04-23 18:57 35.66286 -0.70191 12179 ft 257 kts 24°
2026-04-23 18:57 35.67691 -0.68877 11781 ft 256 kts 54°
2026-04-23 18:58 35.68473 -0.66921 11413 ft 255 kts 70°
2026-04-23 18:58 35.69081 -0.64874 11079 ft 254 kts 70°
2026-04-23 18:58 35.69681 -0.62840 10749 ft 252 kts 70°
2026-04-23 18:58 35.70276 -0.60819 10413 ft 251 kts 70°
2026-04-23 18:59 35.70869 -0.58804 10086 ft 250 kts 70°
2026-04-23 18:59 35.71452 -0.56820 9762 ft 249 kts 70°
2026-04-23 18:59 35.72044 -0.54803 9436 ft 247 kts 70°
2026-04-23 18:59 35.72619 -0.52840 9120 ft 246 kts 70°
2026-04-23 19:00 35.73197 -0.50863 8799 ft 245 kts 70°
2026-04-23 19:00 35.73772 -0.48888 8484 ft 244 kts 70°
2026-04-23 19:00 35.74284 -0.46906 8158 ft 243 kts 82°
2026-04-23 19:00 35.74118 -0.44865 7807 ft 241 kts 113°
2026-04-23 19:01 35.73285 -0.43091 7465 ft 240 kts 134°
2026-04-23 19:01 35.71896 -0.41999 7118 ft 238 kts 166°
2026-04-23 19:01 35.70275 -0.41964 6773 ft 235 kts 197°
2026-04-23 19:01 35.68946 -0.43014 6408 ft 234 kts 234°
2026-04-23 19:02 35.68180 -0.44796 5930 ft 238 kts 249°
2026-04-23 19:02 35.67586 -0.46697 5505 ft 236 kts 249°
2026-04-23 19:02 35.66984 -0.48575 5017 ft 235 kts 248°
2026-04-23 19:02 35.66358 -0.50424 4535 ft 233 kts 248°
2026-04-23 19:03 35.65713 -0.52360 2916 ft 266 kts 248°
2026-04-23 19:03 35.64985 -0.54546 1918 ft 275 kts 248°
2026-04-23 19:03 35.64243 -0.56690 1169 ft 269 kts 246°
2026-04-23 19:03 35.63500 -0.58735 617 ft 258 kts 248°
2026-04-23 19:04 35.62876 -0.60646 427 ft 217 kts 250°
2026-04-23 19:04 35.62355 -0.62167 328 ft 175 kts 247°
2026-04-23 19:04 35.61970 -0.63318 309 ft 87 kts 247°
2026-04-23 19:04 35.61807 -0.63615 309 ft 16 kts 186°
2026-04-23 19:05 35.61704 -0.63571 310 ft 18 kts 157°
2026-04-23 19:05 35.61579 -0.63505 310 ft 21 kts 160°
2026-04-23 19:05 35.61436 -0.63428 310 ft 22 kts 142°
2026-04-23 19:05 35.61419 -0.63299 309 ft 10 kts 84°
2026-04-23 19:06 35.61434 -0.63204 310 ft 13 kts 75°
2026-04-23 19:06 35.61462 -0.63084 310 ft 16 kts 70°
2026-04-23 19:06 35.61507 -0.62948 309 ft 18 kts 63°
2026-04-23 19:06 35.61538 -0.62873 310 ft 3 kts 66°
2026-04-23 19:07 35.61550 -0.62837 310 ft 6 kts 67°
2026-04-23 19:07 35.61572 -0.62772 310 ft 10 kts 68°
2026-04-23 19:07 35.61606 -0.62671 309 ft 17 kts 68°
2026-04-23 19:07 35.61661 -0.62507 310 ft 25 kts 68°
2026-04-23 19:08 35.61736 -0.62284 310 ft 31 kts 67°
2026-04-23 19:08 35.61828 -0.62016 310 ft 37 kts 67°
2026-04-23 19:08 35.61935 -0.61716 310 ft 41 kts 67°
2026-04-23 19:08 35.61972 -0.61607 309 ft 4 kts 68°
2026-04-23 19:09 35.61997 -0.61533 310 ft 13 kts 67°
2026-04-23 19:09 35.62026 -0.61427 309 ft 8 kts 91°
2026-04-23 19:09 35.61991 -0.61370 309 ft 10 kts 146°
2026-04-23 19:09 35.61920 -0.61332 312 ft 13 kts 156°
2026-04-23 19:10 35.61893 -0.61320 310 ft 3 kts 168°
2026-04-23 19:10 35.61866 -0.61330 310 ft 1 kts 201°
2026-04-23 19:10 35.61849 -0.61318 311 ft 5 kts 127°
2026-04-23 19:10 35.61823 -0.61264 310 ft 0 kts 114°
2026-04-23 19:11 35.61813 -0.61237 310 ft 8 kts 116°
2026-04-23 19:11 35.61808 -0.61225 310 ft 2 kts 116°
2026-04-23 19:11 35.61807 -0.61223 310 ft 0 kts 116°